EST,Max TemperatureF,Mean TemperatureF,Min TemperatureF,Max Dew PointF,MeanDew PointF,Min DewpointF,Max Humidity, Mean Humidity, Min Humidity, Max Sea Level PressureIn, Mean Sea Level PressureIn, Min Sea Level PressureIn, Max VisibilityMiles, Mean VisibilityMiles, Min VisibilityMiles, Max Wind SpeedMPH, Mean Wind SpeedMPH, Max Gust SpeedMPH,PrecipitationIn, CloudCover, Events, WindDirDegrees
2013-1-1,55,51,47,52,50,41,100,92,70,30.15,30.02,29.94,10,5,1,9,2,,0.02,7,Rain,138
2013-1-2,55,52,48,54,50,43,100,94,82,30.16,30.01,29.90,10,6,2,9,3,,0.09,8,Rain,23
2013-1-3,48,44,37,47,44,38,100,96,84,30.30,30.21,30.11,10,5,0,9,3,,0.07,7,Fog-Rain,66
2013-1-4,54,42,30,42,32,26,100,86,42,30.37,30.31,30.26,10,4,0,8,2,,0.00,2,Fog,307
2013-1-5,52,38,25,39,28,22,92,65,33,30.43,30.35,30.29,10,10,10,6,2,,0.00,2,,341
2013-1-6,51,44,37,47,41,34,100,92,66,30.26,30.17,30.10,10,5,0,9,3,,0.05,4,Fog-Rain,248
2013-1-7,54,42,29,36,32,29,100,86,40,30.42,30.31,30.22,10,6,0,9,3,,0.00,1,Fog,349
2013-1-8,57,46,36,44,38,32,83,68,54,30.43,30.38,30.35,10,10,10,10,5,,0.00,7,,46
2013-1-9,70,57,44,54,48,42,97,78,50,30.43,30.39,30.36,10,10,10,6,3,,0.00,5,,21
2013-1-10,73,60,48,59,53,48,100,81,47,30.48,30.41,30.37,10,9,2,10,3,,0.00,5,,96
2013-1-11,73,64,54,63,58,54,100,94,62,30.36,30.27,30.17,10,5,0,9,6,,0.00,7,Fog,124
2013-1-12,80,66,53,64,58,54,100,94,47,30.20,30.16,30.11,10,4,0,9,2,,0.00,1,Fog,179
2013-1-13,76,63,50,63,55,50,100,93,52,30.18,30.12,30.08,10,4,0,13,1,18,0.00,3,Fog,165
2013-1-14,78,68,57,61,59,55,100,75,53,30.17,30.13,30.09,10,10,10,14,6,21,0.00,5,,173
2013-1-15,77,66,56,60,58,56,100,75,50,30.16,30.09,30.02,10,10,5,14,6,17,0.00,6,Fog,173
2013-1-16,77,68,60,62,60,56,100,79,47,30.03,29.99,29.94,10,9,2,14,5,18,0.00,7,Rain,195
2013-1-17,76,59,41,63,56,37,100,92,52,30.13,29.91,29.68,10,4,0,26,5,41,0.56,7,Rain,201
2013-1-18,52,42,32,36,27,19,96,62,27,30.52,30.42,30.22,10,10,10,13,7,22,0.00,1,,6
2013-1-19,59,44,29,39,30,22,88,63,34,30.52,30.38,30.22,10,10,10,8,2,,0.00,0,,76
2013-1-20,67,51,35,40,35,30,100,72,26,30.21,30.14,30.05,10,8,2,10,2,,0.00,0,,255
2013-1-21,64,47,30,36,30,22,95,57,21,30.10,30.04,29.96,10,10,10,20,3,23,0.00,0,,258
2013-1-22,50,40,28,25,19,14,80,46,26,30.27,30.18,30.05,10,10,10,17,6,20,0.00,0,,286
2013-1-23,52,38,24,28,19,6,77,50,22,30.40,30.28,30.15,10,10,10,9,4,,0.00,0,,206
2013-1-24,61,46,30,40,26,4,74,47,22,30.49,30.23,30.06,10,10,10,18,10,24,0.00,3,,317
2013-1-25,35,30,25,22,12,5,63,47,36,30.51,30.33,30.17,10,10,10,7,4,,0.00,6,Rain,34
2013-1-26,54,44,33,32,27,21,77,60,40,30.35,30.20,30.12,10,10,10,7,2,,0.00,5,Rain,61
2013-1-27,49,39,29,28,26,24,86,62,38,30.55,30.49,30.36,10,10,7,10,5,,0.00,2,,64
2013-1-28,58,48,37,44,35,27,100,76,58,30.48,30.40,30.30,10,8,1,6,3,,0.01,5,Fog-Rain,41
2013-1-29,76,56,37,62,48,36,100,87,51,30.31,30.23,30.09,10,6,0,12,3,17,0.00,4,Fog,198
2013-1-30,78,66,53,64,60,51,94,80,49,30.09,29.79,29.55,10,8,1,26,15,37,0.45,7,Rain,203
2013-1-31,53,47,41,52,31,18,94,56,24,30.16,29.90,29.68,10,10,10,25,15,36,0.01,3,,257